IRIDIUM 33 DEB, 35797

Orbit data source: Space-Track

IRIDIUM 33 DEB, 35797 is space debris in LEO originally from a launch on Sun, 14 Sep 1997 UTC launched from the Tyuratam Missile And Space Complex (TTMTR). The debris from Iridium 33, an American commercial communications satellite, has been tracked extensively since its accidental collision with the defunct Russian satellite Cosmos 2251 in 2009. This event, occurring at high speed in low Earth orbit (LEO), generated thousands of pieces of space debris, significantly increasing the risk of further collisions. The Iridium 33 debris cloud has impacted space traffic management and orbital debris mitigation strategies, making it a subject of ongoing study in space situational awareness.

Loading next visibility...
Identifier
35797, 1997-051SF
Orbit
LEO
Country
Flag of USUS
Related business
Manufacturer
Unknown
Mission
Spacecraft
Bus & Motor
Unknown
Mass
Unknown
Launch date (UTC)
1997-09-14 (28 years ago)
Launch vehicle
Unknown
Launch site
Tyuratam Missile And Space Complex (TTMTR)
Object type
Payload
Rocket body
Debris
Shape & HBR
Unknown shape, 0.1 m
Radar Cross Section
Small (<0.1 m²)

Expand to show TLE details & history
Last TLE update: 2 days ago

TLE from 2 days ago
0 IRIDIUM 33 DEB
1 35797U 97051SF  25304.85236443  .00016432  00000-0  21049-2 0  9996
2 35797  86.3391 349.1906 0010500 314.8569  45.1799 14.81179807867201
Epoch: 2025-10-31T20:27Z
TLE epoch observation values (Epoch: 2025-10-31T20:27:24.286Z)
Latitude
-0.00003°
Longitude
1.94855°
Altitude
623.538 km
Speed
7.55 km/s
True Right ascension
23h 16m 45s
True Declination
0° 00' 00"
Sunlit
Object was in full shadow at epoch
Visualization orbit readout
Latitude
Unknown
Longitude
Unknown
Altitude
Unknown
Speed
Unknown
Apparent Right ascension
Unknown
Apparent Declination
Unknown
Sunlit
N/A
Visualization observer readout
Local Sidereal Time
00:03:02
Azimuth
Unknown
Elevation
Unknown
Doppler factor
Unknown
Orbital elements
Apogee altitude
629.853 km
Perigee altitude
615.151 km
Semi-major axis
7,000.639 km
Eccentricity
0.00105
Inclination
86.3391°
RAAN
349.1906°
Arg. of periapsis
314.8569°
True anomaly
45.26533°
Mean anomaly
45.1799°
Eccentric anomaly
45.2226°
Mean motion
3.70541 °/min
Orbital period
97.16 mins
BSTAR
0.0021049
Loading maneuver chart data...
Computing Atmospheric mass density...

Documentation

Showing up to 5 results
|